Location: Follega
(52.8850°N, 5.7362°E)
Time: 04:23:16
(UTC+00:00)

EXPRESS MD2 - Visible Passes

Search period start: 04 August 2021 00:00
Search period end: 14 August 2021 00:00
Orbit: 262 x 3945 km, 49.9° (Epoch: 03 August)

Date Brightness Start Highest point End Pass type
(mag) Time Alt. Az. Time Alt. Az. Time Alt. Az.
04 Aug 7.1 20:39:35 10° WNW 20:56:23 38° WSW 21:06:01 10° S visible
05 Aug 7.1 20:23:17 10° WNW 20:40:38 39° SW 20:50:36 10° S visible
06 Aug 7.2 20:06:59 10° WNW 20:24:51 40° SW 20:35:11 10° S visible
06 Aug 7.8 22:34:40 10° W 22:36:19 10° W 22:37:52 10° WSW visible
07 Aug 7.2 19:50:40 10° WNW 20:09:01 41° SW 20:19:43 10° S visible
07 Aug 7.8 22:16:59 10° W 22:20:38 11° W 22:23:52 10° WSW visible
08 Aug 7.3 19:34:19 10° WNW 19:53:10 43° SW 20:04:15 10° SSE visible
08 Aug 7.8 21:59:55 10° W 22:04:55 12° W 22:09:11 10° WSW visible
09 Aug 7.9 21:43:02 10° WNW 21:49:10 13° W 21:54:16 10° WSW visible
10 Aug 7.9 21:26:15 10° WNW 21:33:24 14° W 21:39:13 10° WSW visible
11 Aug 8.0 21:09:32 10° WNW 21:17:36 15° W 21:24:04 10° SW visible
12 Aug 8.0 20:52:51 10° WNW 21:01:47 15° W 21:08:51 10° SW visible
13 Aug 8.1 20:36:11 10° WNW 20:45:56 16° W 20:53:33 10° SW visible
